{"data":{"norad_id":51128,"intl_designator":"2022-005AA","name":"STARLINK-3400","alt_names":[],"object_type":"PAYLOAD","status":"ACTIVE","operator":null,"country":"US","launch_date":"2022-01-19","launch_site_code":"AFETR","launch_vehicle":null,"mission":null,"orbit_class":"UNKNOWN","rcs_meters":null,"size_class":null,"mass_kg":null,"dimensions":null,"purposes":["comms"],"wikipedia_slug":null,"has_3d_model":false,"image_url":null,"decayed_at":null,"tle_current":{"epoch":"2026-09-20T03:37:02.121600Z","epoch_age_seconds":78640,"freshness":"FRESH","line1":"1 51128U 22005AA  26263.15071900 -.00000652  00000+0 -77790-5 0  9997","line2":"2 51128  53.1611 139.9019 0001204  84.2319 275.8822 15.35404269258167","mean_motion":15.35404269,"eccentricity":0.0001204,"inclination_deg":53.1611,"raan_deg":139.9019,"arg_perigee_deg":84.2319,"mean_anomaly_deg":275.8822,"bstar":-7.779e-6,"rev_number":25816,"period_min":93.786374642417,"perigee_km":458.89669019399,"apogee_km":460.54324615193,"semimajor_km":6837.856968173,"source":"CELESTRAK","updated_at":"2026-09-20T09:00:39.588514Z"}}}